Regional Weather Roundup
Issued by NWS Jackson, KY

Home | Current Version | Previous Version | Graphics & Text | Print | Product List | Glossary On
Versions: 1 2 3 4 5 6 7 8 9 10 11 12 13 14 15 16 17 18 19 20 21 22 23 24 25 26 27 28 29 30 31 32 33 34 35 36 37 38 39 40 41 42 43 44 45 46 47 48 49 50
000
ASUS43 KJKL 230605
RWRJKL

EAST KENTUCKY HOURLY WEATHER ROUNDUP
NATIONAL WEATHER SERVICE JACKSON KY
200 AM EDT SAT AUG 23 2014

NOTE: "FAIR" INDICATES FEW OR NO CLOUDS BELOW 12,000 FEET WITH
NO SIGNIFICANT WEATHER AND/OR OBSTRUCTIONS TO VISIBILITY.

* THESE REPORTS ARE NOT UNDER NWS QUALITY CONTROL AND MAY NOT
  REPORT WEATHER SUCH AS PRECIPITATION AND FOG.

KYZ079-080-083-085-087-088-110-112-115-119-120-230700
...EASTERN KENTUCKY...

CITY           SKY/WX    TMP DP  RH WIND       PRES   REMARKS
JACKSON        MOCLDY    71  69  93 CALM      30.04F FOG
6HR MIN TEMP:  71; 6HR MAX TEMP:  78; 6HR PCP:  0.02;

LONDON           N/A     79  72  79 CALM      30.03F
6HR MIN TEMP:  77; 6HR MAX TEMP:  85;

SOMERSET*        N/A     73  73 100 CALM      30.04R
MONTICELLO*      N/A     72  72 100 CALM      30.04F FOG
6HR MIN TEMP:  72; 6HR MAX TEMP:  83; 6HR PCP:  0.10;

WILLIAMSBURG*  CLEAR     72  72 100 CALM      30.03F
MIDDLESBORO*     N/A     72  71  96 CALM      30.03F
6HR MIN TEMP:  72; 6HR MAX TEMP:  82;

HARLAN APT*    CLOUDY    72  72 100 MISG      30.06S
BLACK MTN*       N/A     66  66 100 E2          N/A
PIKEVILLE APT* CLOUDY    70  70 100 S5        30.03F FOG
BIG SANDY*     CLOUDY    71  71  98 S3        30.02F
6HR MIN TEMP:  71; 6HR MAX TEMP:  72;

MOREHEAD APT*  CLOUDY    72  72 100 S3        30.04S FOG
$$

KYZ035-036-041-042-044-050-067-078-099-230700
...CENTRAL KENTUCKY...

CITY           SKY/WX    TMP DP  RH WIND       PRES   REMARKS
MT STERLING*   CLOUDY    72  70  94 CALM      30.04S
FLEMING/MASON* CLOUDY    72  71  98 W3        30.02S FOG
DANVILLE*        N/A     70  70 100 CALM      30.04S
RICHMOND*        N/A     72  68  88 CALM      30.03S
LEXINGTON        N/A     74  70  87 CALM      30.03R
6HR MIN TEMP:  74; 6HR MAX TEMP:  77; 6HR PCP:  0.02;

FRANKFORT        N/A     70  69  97 CALM      30.01S
6HR MIN TEMP:  70; 6HR MAX TEMP:  77; 6HR PCP:  0.11;

$$

KYZ091>093-OHZ055-061-077-WVZ005-015-034-035-042-230700
...SOUTHERN OHIO/WEST VIRGINIA...

CITY           SKY/WX    TMP DP  RH WIND       PRES   REMARKS
COLUMBUS         N/A     75  71  87 CALM      29.97F FOG
DAYTON           N/A     74  71  91 NW3       30.01F
WILMINGTON       N/A     70  69  97 CALM      30.01S FOG
HUNTINGTON     CLOUDY    71  71 100 SW6       29.99S
CHARLESTON     MOCLDY    72  71  97 CALM      30.00S
PINEVILLE*     CLOUDY    70  70 100 MISG      30.10S
BECKLEY        CLOUDY    67  66  97 SW5       30.08S FOG
BLUEFIELD      MOCLDY    68  65  90 W7        30.11S
$$

VAZ002-007-008-TNZ017-027-036-066-071-230700
...SOUTHWEST VIRGINIA/EAST TENNESSEE...

CITY           SKY/WX    TMP DP  RH WIND       PRES   REMARKS
WISE*          RAIN      68  68 100 CALM      30.11F
JONESVILLE*      N/A     70  70 100 CALM      30.07S
ABINGDON*        N/A     70  69  98 CALM      30.09F
BRISTOL          N/A     70  67  90 CALM      30.06F
KNOXVILLE      MOCLDY    75  72  90 CALM      30.02F
OAK RIDGE        N/A     76  72  87 CALM      30.03F
CROSSVILLE       N/A     73  69  87 CALM      30.09F FOG
NASHVILLE        N/A     77  74  90 S3        30.02S
$$

...KEY TO REMARKS...
VSB - VISIBILITY IN MILES
WCI - WIND CHILL INDEX
HX  - HEAT INDEX

$$



USA.gov is the U.S. government's official web portal to all federal, state and local government web resources and services.